KC5TIL-3 Weather Reports


Display with metric or nautical units.
time (UTC)temp
F
wind
direction
speed
MPH
gust
MPH
rain 1hr
in
rain 24hr
in
rain mn
in
humidity
%
barometer
mb
20260509150718 75 351 5.0 9.0 0.00 0.00 0.00 34 1008.8
20260509145719 75 27 7.0 8.0 0.00 0.00 0.00 35 1008.8
20260509145221 75 282 3.0 7.0 0.00 0.00 0.00 36 1008.8
20260509144722 74 9 4.0 10.0 0.00 0.00 0.00 35 1008.8
20260509143723 74 294 5.0 9.0 0.00 0.00 0.00 39 1008.8
20260509143225 74 356 6.0 8.0 0.00 0.00 0.00 41 1008.8
20260509142723 74 309 4.0 7.0 0.00 0.00 0.00 42 1008.8
20260509142225 74 320 4.0 6.0 0.00 0.00 0.00 45 1008.8
20260509141727 73 293 3.0 7.0 0.00 0.00 0.00 47 1008.8
20260509140718 73 291 4.0 6.0 0.00 0.00 0.00 48 1008.8
20260509135718 73 12 4.0 6.0 0.00 0.00 0.00 49 1008.8
20260509135219 72 250 4.0 7.0 0.00 0.00 0.00 51 1008.8
20260509134210 72 351 4.0 9.0 0.00 0.00 0.00 51 1008.8
20260509133712 71 295 4.0 7.0 0.00 0.00 0.00 50 1008.8
20260509133214 72 292 3.0 6.0 0.00 0.00 0.00 51 1008.8
20260509132713 71 330 3.0 5.0 0.00 0.00 0.00 51 1008.8
20260509132215 71 308 3.0 7.0 0.00 0.00 0.00 52 1008.8
20260509131717 70 337 5.0 9.0 0.00 0.00 0.00 53 1008.8
20260509131215 70 69 6.0 7.0 0.00 0.00 0.00 53 1008.8
20260509130712 70 279 4.0 8.0 0.00 0.00 0.00 53 1008.8
20260509130214 70 305 3.0 8.0 0.00 0.00 0.00 53 1008.8
20260509125713 70 314 3.0 10.0 0.00 0.00 0.00 53 1008.8
20260509124702 70 293 5.0 7.0 0.00 0.00 0.00 51 1008.8
20260509124201 70 351 4.0 8.0 0.00 0.00 0.00 51 1008.8
20260509123703 70 289 5.0 6.0 0.00 0.00 0.00 51 1008.8
20260509123205 70 314 3.0 4.0 0.00 0.00 0.00 51 1008.8
20260509122703 70 246 0.0 6.0 0.00 0.00 0.00 53 1008.8
20260509121206 69 320 4.0 4.0 0.00 0.00 0.00 54 1007.8
20260509120708 69 351 0.0 4.0 0.00 0.00 0.00 54 1007.8
20260509120209 69 347 0.0 7.0 0.00 0.00 0.00 53 1007.8
20260509115708 69 356 3.0 7.0 0.00 0.00 0.00 53 1007.8
20260509114712 69 337 4.0 7.0 0.00 0.00 0.00 52 1007.8
20260509114210 69 329 3.0 5.0 0.00 0.00 0.00 53 1007.8
20260509113713 69 306 3.0 4.0 0.00 0.00 0.00 53 1007.8
20260509113214 69 305 0.0 0.0 0.00 0.00 0.00 52 1007.8
20260509112713 69 306 0.0 0.0 0.00 0.00 0.00 51 1007.8
20260509112215 69 306 0.0 4.0 0.00 0.00 0.00 50 1007.8
20260509111717 69 306 0.0 5.0 0.00 0.00 0.00 50 1007.8
20260509111215 69 305 3.0 6.0 0.00 0.00 0.00 50 1007.8
20260509110717 69 304 3.0 7.0 0.00 0.00 0.00 49 1007.8
20260509110219 69 330 4.0 7.0 0.00 0.00 0.00 50 1007.8
20260509105718 69 268 3.0 6.0 0.00 0.00 0.00 51 1007.8
20260509104721 70 301 5.0 8.0 0.00 0.00 0.00 53 1007.8
20260509103722 70 286 4.0 4.0 0.00 0.00 0.00 55 1006.8
20260509103219 71 302 3.0 5.0 0.00 0.00 0.00 56 1006.8
20260509102718 71 303 3.0 4.0 0.00 0.00 0.00 60 1006.8
20260509102219 71 305 3.0 4.0 0.00 0.00 0.00 60 1007.8
20260509101721 71 307 3.0 6.0 0.00 0.00 0.00 60 1007.8
20260509100717 71 298 3.0 7.0 0.00 0.00 0.00 61 1006.8
20260509095718 71 329 6.0 9.0 0.00 0.00 0.00 64 1006.8
20260509095220 72 9 7.0 11.0 0.00 0.00 0.00 66 1006.8
20260509094722 72 3 7.0 13.0 0.00 0.00 0.00 68 1006.8
20260509094221 72 49 10.0 11.0 0.00 0.00 0.00 67 1006.8
20260509093722 73 283 7.0 13.0 0.00 0.00 0.00 67 1003.8
20260509093224 73 216 8.0 8.0 0.00 0.00 0.00 67 1003.8
20260509092723 73 127 5.0 9.0 0.00 0.00 0.00 67 1003.8
20260509092224 73 155 4.0 13.0 0.00 0.00 0.00 66 1004.8
20260509091726 73 166 7.0 11.0 0.00 0.00 0.00 66 1004.8
20260509090722 73 228 6.0 10.0 0.00 0.00 0.00 66 1004.8
20260509085723 72 203 7.0 13.0 0.00 0.00 0.00 66 1004.8
20260509085225 72 176 8.0 14.0 0.00 0.00 0.00 67 1004.8
20260509084727 72 186 7.0 11.0 0.00 0.00 0.00 66 1004.8
20260509083727 72 223 7.0 11.0 0.00 0.00 0.00 69 1005.8
20260509083229 72 154 7.0 10.0 0.00 0.00 0.00 70 1005.8
20260509082728 72 182 7.0 12.0 0.00 0.00 0.00 69 1005.8
20260509082229 72 195 9.0 11.0 0.00 0.00 0.00 69 1005.8
20260509081731 72 213 7.0 10.0 0.00 0.00 0.00 70 1005.8
20260509081230 72 213 6.0 9.0 0.00 0.00 0.00 71 1005.8
20260509080732 72 187 6.0 9.0 0.00 0.00 0.00 71 1006.8
20260509080234 72 227 5.0 10.0 0.00 0.00 0.00 70 1006.8
20260509075732 72 125 6.0 8.0 0.00 0.00 0.00 69 1006.8
20260509075234 72 144 5.0 8.0 0.00 0.00 0.00 69 1007.8
20260509074224 72 154 5.0 6.0 0.00 0.00 0.00 70 1007.8
20260509073726 72 145 4.0 8.0 0.00 0.00 0.00 70 1008.8
20260509073228 72 193 5.0 9.0 0.00 0.00 0.00 70 1008.8
20260509072727 72 223 7.0 9.0 0.00 0.00 0.00 70 1008.8
20260509072228 72 207 6.0 9.0 0.00 0.00 0.00 71 1008.8
20260509071730 72 223 6.0 8.0 0.00 0.00 0.00 73 1008.8
20260509071229 73 253 4.0 7.0 0.00 0.00 0.00 75 1008.8
20260509070731 73 249 4.0 12.0 0.00 0.00 0.00 76 1009.8
20260509070228 73 258 10.0 10.0 0.00 0.00 0.00 76 1009.8
20260509065727 73 302 7.0 8.0 0.00 0.00 0.00 76 1009.8
20260509064731 73 300 6.0 7.0 0.00 0.00 0.00 76 1009.8
20260509064229 73 272 5.0 6.0 0.00 0.00 0.00 76 1009.8
20260509063233 73 286 4.0 6.0 0.00 0.00 0.00 77 1009.8
20260509061735 73 344 3.0 4.0 0.00 0.00 0.00 77 1008.8
20260509060737 73 7 3.0 4.0 0.00 0.00 0.00 77 1008.8
20260509060238 73 7 0.0 4.0 0.00 0.00 0.00 77 1008.8
20260509055736 73 7 3.0 7.0 0.00 0.00 0.00 77 1008.8
20260509054740 72 18 6.0 8.0 0.00 0.00 0.00 76 1008.8
20260509053243 72 338 4.0 4.0 0.00 0.00 0.00 74 1008.8
20260509052742 72 139 3.0 0.0 0.00 0.00 0.00 74 1008.8
20260509052244 72 147 0.0 3.0 0.00 0.00 0.00 74 1007.8
20260509051244 72 147 3.0 5.0 0.00 0.00 0.00 73 1007.8
20260509050746 72 170 0.0 4.0 0.00 0.00 0.00 72 1007.8
20260509050247 72 185 3.0 5.0 0.00 0.00 0.00 72 1007.8
20260509044750 72 113 4.0 5.0 0.00 0.00 0.00 70 1007.8
20260509043751 72 127 4.0 6.0 0.00 0.00 0.00 70 1007.8
20260509043252 73 129 5.0 6.0 0.00 0.00 0.00 69 1007.8
20260509042253 73 128 4.0 6.0 0.00 0.00 0.00 69 1008.8
20260509041755 73 124 4.0 5.0 0.00 0.00 0.00 68 1008.8
20260509040755 73 125 0.0 6.0 0.00 0.00 0.00 67 1007.8
20260509040257 73 124 5.0 5.0 0.00 0.00 0.00 67 1007.8
20260509035756 73 125 4.0 7.0 0.00 0.00 0.00 66 1007.8
20260509035257 73 127 4.0 7.0 0.00 0.00 0.00 66 1007.8
20260509034759 73 137 5.0 8.0 0.00 0.00 0.00 66 1007.8
20260509034259 73 218 0.0 9.0 0.00 0.00 0.00 66 1007.8
20260509033800 73 172 4.0 9.0 0.00 0.00 0.00 65 1007.8
20260509033303 73 212 6.0 8.0 0.00 0.00 0.00 65 1007.8
20260509032756 73 137 3.0 8.0 0.00 0.00 0.00 65 1007.8
20260509032257 73 199 4.0 7.0 0.00 0.00 0.00 64 1006.8
20260509031754 73 148 4.0 7.0 0.00 0.00 0.00 64 1006.8
20260509031253 73 188 4.0 8.0 0.00 0.00 0.00 64 1006.8
20260509030755 73 186 5.0 8.0 0.00 0.00 0.00 63 1006.8
20260509030257 73 132 6.0 10.0 0.00 0.00 0.00 63 1006.8
20260509025756 73 158 6.0 8.0 0.00 0.00 0.00 63 1006.8
20260509025253 73 139 5.0 11.0 0.00 0.00 0.00 62 1006.8
20260509024754 73 129 7.0 10.0 0.00 0.00 0.00 62 1006.8
20260509024254 73 134 7.0 9.0 0.00 0.00 0.00 61 1006.8
20260509023247 74 138 6.0 10.0 0.00 0.00 0.00 60 1006.8
20260509022747 74 157 7.0 8.0 0.00 0.00 0.00 60 1006.8
20260509022248 74 134 6.0 8.0 0.00 0.00 0.00 60 1006.8
20260509021750 74 200 4.0 9.0 0.00 0.00 0.00 59 1006.8
20260509021249 74 143 5.0 8.0 0.00 0.00 0.00 59 1006.8
20260509020750 74 121 7.0 7.0 0.00 0.00 0.00 59 1006.8
20260509020248 74 121 0.0 8.0 0.00 0.00 0.00 58 1006.8
20260509015747 74 117 5.0 7.0 0.00 0.00 0.00 58 1006.8
20260509015249 74 116 5.0 7.0 0.00 0.00 0.00 57 1006.8
20260509014750 74 119 6.0 6.0 0.00 0.00 0.00 56 1006.8
20260509014249 74 124 5.0 5.0 0.00 0.00 0.00 56 1006.8
20260509013750 74 126 4.0 7.0 0.00 0.00 0.00 55 1006.8
20260509013253 74 118 5.0 7.0 0.00 0.00 0.00 55 1006.8
20260509012751 74 129 5.0 6.0 0.00 0.00 0.00 54 1006.8
20260509012253 74 128 4.0 7.0 0.00 0.00 0.00 53 1005.8
20260509011254 74 174 0.0 6.0 0.00 0.00 0.00 52 1005.8
20260509010755 74 143 3.0 5.0 0.00 0.00 0.00 52 1005.8
20260509010257 74 146 0.0 5.0 0.00 0.00 0.00 52 1005.8
20260509005257 74 123 4.0 7.0 0.00 0.00 0.00 52 1005.8
20260509004751 74 123 0.0 7.0 0.00 0.00 0.00 52 1005.8
20260509003750 74 127 4.0 6.0 0.00 0.00 0.00 51 1005.8
20260509003252 74 181 4.0 7.0 0.00 0.00 0.00 51 1005.8
20260509002752 74 131 0.0 7.0 0.00 0.00 0.00 51 1005.8
20260509002253 74 218 4.0 6.0 0.00 0.00 0.00 50 1005.8
20260509000755 74 170 0.0 4.0 0.00 0.00 0.00 49 1005.8
20260508235756 74 150 4.0 7.0 0.00 0.00 0.00 50 1005.8
20260508234258 74 183 0.0 8.0 0.00 0.00 0.00 49 1006.8
20260508233800 74 134 5.0 7.0 0.00 0.00 0.00 49 1005.8
20260508232800 74 189 4.0 6.0 0.00 0.00 0.00 48 1005.8
20260508232257 74 125 3.0 7.0 0.00 0.00 0.00 47 1006.8
20260508231258 74 142 3.0 6.0 0.00 0.00 0.00 46 1006.8
20260508230759 74 208 4.0 7.0 0.00 0.00 0.00 47 1006.8
20260508225800 73 133 5.0 8.0 0.00 0.00 0.00 47 1006.8
20260508225302 74 152 3.0 10.0 0.00 0.00 0.00 46 1005.8
20260508224302 74 165 5.0 10.0 0.00 0.00 0.00 45 1005.8
20260508223804 74 132 7.0 11.0 0.00 0.00 0.00 45 1006.8
20260508223306 73 130 6.0 9.0 0.00 0.00 0.00 45 1006.8
20260508222805 74 206 6.0 10.0 0.00 0.00 0.00 45 1006.8
20260508221307 73 150 6.0 11.0 0.00 0.00 0.00 49 1006.8
20260508220804 72 214 6.0 11.0 0.00 0.00 0.00 49 1006.8
20260508215805 72 161 7.0 11.0 0.00 0.00 0.00 49 1006.8
20260508215306 72 146 7.0 12.0 0.00 0.00 0.00 48 1006.8
20260508214258 72 228 4.0 11.0 0.00 0.00 0.00 45 1006.8
20260508213746 72 205 5.0 10.0 0.00 0.00 0.00 46 1006.8
20260508212737 72 220 4.0 8.0 0.00 0.00 0.00 45 1006.8
20260508211737 71 131 5.0 7.0 0.00 0.00 0.00 44 1007.8
20260508211234 71 173 5.0 7.0 0.00 0.00 0.00 45 1007.8
20260508210737 70 211 5.0 7.0 0.00 0.00 0.00 45 1007.8
20260508205737 70 121 5.0 7.0 0.00 0.00 0.00 49 1007.8
20260508204239 70 111 4.0 9.0 0.00 0.00 0.00 48 1007.8
20260508203742 70 137 0.0 6.0 0.00 0.00 0.00 48 1007.8
20260508202741 69 245 3.0 8.0 0.00 0.00 0.00 52 1007.8
20260508202243 69 129 4.0 11.0 0.00 0.00 0.00 52 1007.8
20260508201745 68 125 4.0 13.0 0.00 0.00 0.00 53 1007.8
20260508201244 69 109 10.0 10.0 0.00 0.00 0.00 51 1007.8
20260508200745 69 131 6.0 11.0 0.00 0.00 0.00 47 1007.8
20260508200248 71 106 6.0 10.0 0.00 0.00 0.00 42 1007.8
20260508195746 71 199 7.0 10.0 0.00 0.00 0.00 41 1007.8
20260508195248 70 136 8.0 8.0 0.00 0.00 0.00 40 1009.8
20260508194750 71 152 5.0 10.0 0.00 0.00 0.00 38 1009.8
20260508194248 71 202 5.0 10.0 0.00 0.00 0.00 37 1009.8
20260508193746 71 207 7.0 8.0 0.00 0.00 0.00 37 1008.8
20260508193247 71 145 5.0 10.0 0.00 0.00 0.00 37 1008.8
20260508192746 71 145 5.0 8.0 0.00 0.00 0.00 36 1008.8
20260508192249 71 173 4.0 9.0 0.00 0.00 0.00 36 1008.8
20260508191750 71 222 5.0 11.0 0.00 0.00 0.00 35 1008.8
20260508190746 70 138 10.0 10.0 0.00 0.00 0.00 35 1008.8
20260508190242 71 125 6.0 11.0 0.00 0.00 0.00 34 1008.8
20260508185244 71 207 7.0 10.0 0.00 0.00 0.00 34 1009.8
20260508184745 71 131 6.0 10.0 0.00 0.00 0.00 34 1009.8
20260508183742 71 222 5.0 10.0 0.00 0.00 0.00 33 1009.8
20260508183243 71 230 5.0 10.0 0.00 0.00 0.00 32 1009.8
20260508182742 72 157 6.0 12.0 0.00 0.00 0.00 33 1009.8
20260508182238 72 200 6.0 10.0 0.00 0.00 0.00 33 1009.8
20260508181740 72 192 5.0 9.0 0.00 0.00 0.00 33 1009.8
20260508180242 73 120 6.0 7.0 0.00 0.00 0.00 32 1009.8
20260508175737 72 123 5.0 8.0 0.00 0.00 0.00 32 1009.8
20260508174739 71 137 5.0 6.0 0.00 0.00 0.00 33 1009.8
20260508174238 73 150 3.0 7.0 0.00 0.00 0.00 32 1009.8
20260508173740 72 138 3.0 8.0 0.00 0.00 0.00 32 1009.8
20260508173242 72 195 4.0 9.0 0.00 0.00 0.00 33 1009.8
20260508172741 71 128 3.0 9.0 0.00 0.00 0.00 34 1009.8
20260508171744 71 138 0.0 9.0 0.00 0.00 0.00 33 1010.8
20260508170745 70 227 4.0 8.0 0.00 0.00 0.00 34 1010.8
20260508165746 70 190 6.0 7.0 0.00 0.00 0.00 34 1010.8
20260508164749 70 208 3.0 7.0 0.00 0.00 0.00 34 1010.8
20260508164248 69 148 5.0 10.0 0.00 0.00 0.00 34 1010.8
20260508163749 69 112 7.0 5.0 0.00 0.00 0.00 35 1010.8
20260508163251 70 193 0.0 7.0 0.00 0.00 0.00 35 1010.8
20260508162247 68 145 7.0 9.0 0.00 0.00 0.00 36 1011.8
20260508161749 68 206 4.0 9.0 0.00 0.00 0.00 38 1011.8
20260508161248 68 126 3.0 7.0 0.00 0.00 0.00 38 1011.8
20260508160749 67 181 4.0 10.0 0.00 0.00 0.00 38 1011.8
20260508160251 67 119 7.0 8.0 0.00 0.00 0.00 39 1011.8
20260508155751 66 153 5.0 10.0 0.00 0.00 0.00 41 1011.8
20260508154748 66 142 4.0 12.0 0.00 0.00 0.00 42 1011.8
20260508154248 66 208 5.0 10.0 0.00 0.00 0.00 42 1011.8
20260508153749 66 114 5.0 10.0 0.00 0.00 0.00 43 1011.8
20260508153251 66 131 4.0 7.0 0.00 0.00 0.00 42 1011.8
20260508152251 66 123 5.0 10.0 0.00 0.00 0.00 41 1011.8
20260508151743 66 134 6.0 7.0 0.00 0.00 0.00 42 1011.8